Year,Month,Day,Hour,Minute,Value (Times are PST for barometer in hPa)
2015,01,18,00,00,967.22
2015,01,18,00,01,967.22
2015,01,18,00,02,966.92
2015,01,18,00,03,966.92
2015,01,18,00,04,966.92
2015,01,18,00,05,966.92
2015,01,18,00,06,966.92
2015,01,18,00,07,966.92
2015,01,18,00,08,966.92
2015,01,18,00,09,966.92
2015,01,18,00,10,966.92
2015,01,18,00,11,966.92
2015,01,18,00,12,966.92
2015,01,18,00,13,966.92
2015,01,18,00,14,966.92
2015,01,18,00,15,966.92
2015,01,18,00,16,966.92
2015,01,18,00,17,966.68
2015,01,18,00,18,966.68
2015,01,18,00,19,966.68
2015,01,18,00,20,966.68
2015,01,18,00,21,966.68
2015,01,18,00,22,966.68
2015,01,18,00,23,966.68
2015,01,18,00,24,966.68
2015,01,18,00,25,966.68
2015,01,18,00,26,966.68
2015,01,18,00,27,966.68
2015,01,18,00,28,966.68
2015,01,18,00,29,966.68
2015,01,18,00,30,966.68
2015,01,18,00,31,966.68
2015,01,18,00,32,966.47
2015,01,18,00,33,966.47
2015,01,18,00,34,966.47
2015,01,18,00,35,966.47
2015,01,18,00,36,966.47
2015,01,18,00,37,966.47
2015,01,18,00,38,966.47
2015,01,18,00,39,966.47
2015,01,18,00,40,966.47
2015,01,18,00,41,966.47
2015,01,18,00,42,966.47
2015,01,18,00,43,966.47
2015,01,18,00,44,966.47
2015,01,18,00,45,966.47
2015,01,18,00,46,966.47
2015,01,18,00,47,966.44
2015,01,18,00,48,966.44
2015,01,18,00,49,966.44
2015,01,18,00,50,966.44
2015,01,18,00,51,966.44
2015,01,18,00,52,966.44
2015,01,18,00,53,966.44
2015,01,18,00,54,966.44
2015,01,18,00,55,966.44
2015,01,18,00,56,966.44
2015,01,18,00,57,966.44
2015,01,18,00,58,966.44
2015,01,18,00,59,966.44
2015,01,18,01,00,966.44
2015,01,18,01,01,966.44
2015,01,18,01,02,966.51
2015,01,18,01,03,966.51
2015,01,18,01,04,966.51
2015,01,18,01,05,966.51
2015,01,18,01,06,966.51
2015,01,18,01,07,966.51
2015,01,18,01,08,966.51
2015,01,18,01,09,966.51
2015,01,18,01,10,966.51
2015,01,18,01,11,966.51
2015,01,18,01,12,966.51
2015,01,18,01,13,966.51
2015,01,18,01,14,966.51
2015,01,18,01,15,966.51
2015,01,18,01,16,966.51
2015,01,18,01,17,966.58
2015,01,18,01,18,966.58
2015,01,18,01,19,966.58
2015,01,18,01,20,966.58
2015,01,18,01,21,966.58
2015,01,18,01,22,966.58
2015,01,18,01,23,966.58
2015,01,18,01,24,966.58
2015,01,18,01,25,966.58
2015,01,18,01,26,966.58
2015,01,18,01,27,966.58
2015,01,18,01,28,966.58
2015,01,18,01,29,966.58
2015,01,18,01,30,966.58
2015,01,18,01,31,966.58
2015,01,18,01,32,966.95
2015,01,18,01,33,966.95
2015,01,18,01,34,966.95
2015,01,18,01,35,966.95
2015,01,18,01,36,966.95
2015,01,18,01,37,966.95
2015,01,18,01,38,966.95
2015,01,18,01,39,966.95
2015,01,18,01,40,966.95
2015,01,18,01,41,966.95
2015,01,18,01,42,966.95
2015,01,18,01,43,966.95
2015,01,18,01,44,966.95
2015,01,18,01,45,966.95
2015,01,18,01,46,966.95
2015,01,18,01,47,966.68
2015,01,18,01,48,966.68
2015,01,18,01,49,966.68
2015,01,18,01,50,966.68
2015,01,18,01,51,966.68
2015,01,18,01,52,966.68
2015,01,18,01,53,966.68
2015,01,18,01,54,966.68
2015,01,18,01,55,966.68
2015,01,18,01,56,966.68
2015,01,18,01,57,966.68
2015,01,18,01,58,966.68
2015,01,18,01,59,966.68
2015,01,18,02,00,966.68
2015,01,18,02,01,966.68
2015,01,18,02,02,966.47
2015,01,18,02,03,966.47
2015,01,18,02,04,966.47
2015,01,18,02,05,966.47
2015,01,18,02,06,966.47
2015,01,18,02,07,966.47
2015,01,18,02,08,966.47
2015,01,18,02,09,966.47
2015,01,18,02,10,966.47
2015,01,18,02,11,966.47
2015,01,18,02,12,966.47
2015,01,18,02,13,966.47
2015,01,18,02,14,966.47
2015,01,18,02,15,966.47
2015,01,18,02,16,966.47
2015,01,18,02,17,965.97
2015,01,18,02,18,965.97
2015,01,18,02,19,965.97
2015,01,18,02,20,965.97
2015,01,18,02,21,965.97
2015,01,18,02,22,965.97
2015,01,18,02,23,965.97
2015,01,18,02,24,965.97
2015,01,18,02,25,965.97
2015,01,18,02,26,965.97
2015,01,18,02,27,965.97
2015,01,18,02,28,965.97
2015,01,18,02,29,965.97
2015,01,18,02,30,965.97
2015,01,18,02,31,965.97
2015,01,18,02,32,965.59
2015,01,18,02,33,965.59
2015,01,18,02,34,965.59
2015,01,18,02,35,965.59
2015,01,18,02,36,965.59
2015,01,18,02,37,965.59
2015,01,18,02,38,965.59
2015,01,18,02,39,965.59
2015,01,18,02,40,965.59
2015,01,18,02,41,965.59
2015,01,18,02,42,965.59
2015,01,18,02,43,965.59
2015,01,18,02,44,965.59
2015,01,18,02,45,965.59
2015,01,18,02,46,965.59
2015,01,18,02,47,965.46
2015,01,18,02,48,965.46
2015,01,18,02,49,965.46
2015,01,18,02,50,965.46
2015,01,18,02,51,965.46
2015,01,18,02,52,965.46
2015,01,18,02,53,965.46
2015,01,18,02,54,965.46
2015,01,18,02,55,965.46
2015,01,18,02,56,965.46
2015,01,18,02,57,965.46
2015,01,18,02,58,965.46
2015,01,18,02,59,965.46
2015,01,18,03,00,965.46
2015,01,18,03,01,965.46
2015,01,18,03,02,965.87
2015,01,18,03,03,965.87
2015,01,18,03,04,965.87
2015,01,18,03,05,965.87
2015,01,18,03,06,965.87
2015,01,18,03,07,965.87
2015,01,18,03,08,965.87
2015,01,18,03,09,965.87
2015,01,18,03,10,965.87
2015,01,18,03,11,965.87
2015,01,18,03,12,965.87
2015,01,18,03,13,965.87
2015,01,18,03,14,965.87
2015,01,18,03,15,965.87
2015,01,18,03,16,965.87
2015,01,18,03,17,965.36
2015,01,18,03,18,965.36
2015,01,18,03,19,965.36
2015,01,18,03,20,965.36
2015,01,18,03,21,965.36
2015,01,18,03,22,965.36
2015,01,18,03,23,965.36
2015,01,18,03,24,965.36
2015,01,18,03,25,965.36
2015,01,18,03,26,965.36
2015,01,18,03,27,965.36
2015,01,18,03,28,965.36
2015,01,18,03,29,965.36
2015,01,18,03,30,965.36
2015,01,18,03,31,965.36
2015,01,18,03,32,965.42
2015,01,18,03,33,965.42
2015,01,18,03,34,965.42
2015,01,18,03,35,965.42
2015,01,18,03,36,965.42
2015,01,18,03,37,965.42
2015,01,18,03,38,965.42
2015,01,18,03,39,965.42
2015,01,18,03,40,965.42
2015,01,18,03,41,965.42
2015,01,18,03,42,965.42
2015,01,18,03,43,965.42
2015,01,18,03,44,965.42
2015,01,18,03,45,965.42
2015,01,18,03,46,965.42
2015,01,18,03,47,965.87
2015,01,18,03,48,965.87
2015,01,18,03,49,965.87
2015,01,18,03,50,965.87
2015,01,18,03,51,965.87
2015,01,18,03,52,965.87
2015,01,18,03,53,965.87
2015,01,18,03,54,965.87
2015,01,18,03,55,965.87
2015,01,18,03,56,965.87
2015,01,18,03,57,965.87
2015,01,18,03,58,965.87
2015,01,18,03,59,965.87
2015,01,18,04,00,965.87
2015,01,18,04,01,965.87
2015,01,18,04,02,966.03
2015,01,18,04,03,966.03
2015,01,18,04,04,966.03
2015,01,18,04,05,966.03
2015,01,18,04,06,966.03
2015,01,18,04,07,966.03
2015,01,18,04,08,966.03
2015,01,18,04,09,966.03
2015,01,18,04,10,966.03
2015,01,18,04,11,966.03
2015,01,18,04,12,966.03
2015,01,18,04,13,966.03
2015,01,18,04,14,966.03
2015,01,18,04,15,966.03
2015,01,18,04,16,966.03
2015,01,18,04,17,966.47
2015,01,18,04,18,966.47
2015,01,18,04,19,966.47
2015,01,18,04,20,966.47
2015,01,18,04,21,966.47
2015,01,18,04,22,966.47
2015,01,18,04,23,966.47
2015,01,18,04,24,966.47
2015,01,18,04,25,966.47
2015,01,18,04,26,966.47
2015,01,18,04,27,966.47
2015,01,18,04,28,966.47
2015,01,18,04,29,966.47
2015,01,18,04,30,966.47
2015,01,18,04,31,966.47
2015,01,18,04,32,967.12
2015,01,18,04,33,967.12
2015,01,18,04,34,967.12
2015,01,18,04,35,967.12
2015,01,18,04,36,967.12
2015,01,18,04,37,967.12
2015,01,18,04,38,967.12
2015,01,18,04,39,967.12
2015,01,18,04,40,967.12
2015,01,18,04,41,967.12
2015,01,18,04,42,967.12
2015,01,18,04,43,967.12
2015,01,18,04,44,967.12
2015,01,18,04,45,967.12
2015,01,18,04,46,967.12
2015,01,18,04,47,967.59
2015,01,18,04,48,967.59
2015,01,18,04,49,967.59
2015,01,18,04,50,967.59
2015,01,18,04,51,967.59
2015,01,18,04,52,967.59
2015,01,18,04,53,967.59
2015,01,18,04,54,967.59
2015,01,18,04,55,967.59
2015,01,18,04,56,967.59
2015,01,18,04,57,967.59
2015,01,18,04,58,967.59
2015,01,18,04,59,967.59
2015,01,18,05,00,967.59
2015,01,18,05,01,967.59
2015,01,18,05,02,967.46
2015,01,18,05,03,967.46
2015,01,18,05,04,967.46
2015,01,18,05,05,967.46
2015,01,18,05,06,967.46
2015,01,18,05,07,967.46
2015,01,18,05,08,967.46
2015,01,18,05,09,967.46
2015,01,18,05,10,967.46
2015,01,18,05,11,967.46
2015,01,18,05,12,967.46
2015,01,18,05,13,967.46
2015,01,18,05,14,967.46
2015,01,18,05,15,967.46
2015,01,18,05,16,967.46
2015,01,18,05,17,967.76
2015,01,18,05,18,967.76
2015,01,18,05,19,967.76
2015,01,18,05,20,967.76
2015,01,18,05,21,967.76
2015,01,18,05,22,967.76
2015,01,18,05,23,967.76
2015,01,18,05,24,967.76
2015,01,18,05,25,967.76
2015,01,18,05,26,967.76
2015,01,18,05,27,967.76
2015,01,18,05,28,967.76
2015,01,18,05,29,967.76
2015,01,18,05,30,967.76
2015,01,18,05,31,967.76
2015,01,18,05,32,968.10
2015,01,18,05,33,968.10
2015,01,18,05,34,968.10
2015,01,18,05,35,968.10
2015,01,18,05,36,968.10
2015,01,18,05,37,968.10
2015,01,18,05,38,968.10
2015,01,18,05,39,968.10
2015,01,18,05,40,968.10
2015,01,18,05,41,968.10
2015,01,18,05,42,968.10
2015,01,18,05,43,968.10
2015,01,18,05,44,968.10
2015,01,18,05,45,968.10
2015,01,18,05,46,968.10
2015,01,18,05,47,969.01
2015,01,18,05,48,969.01
2015,01,18,05,49,969.01
2015,01,18,05,50,969.01
2015,01,18,05,51,969.01
2015,01,18,05,52,969.01
2015,01,18,05,53,969.01
2015,01,18,05,54,969.01
2015,01,18,05,55,969.01
2015,01,18,05,56,969.01
2015,01,18,05,57,969.01
2015,01,18,05,58,969.01
2015,01,18,05,59,969.01
2015,01,18,06,00,969.01
2015,01,18,06,01,969.01
2015,01,18,06,02,969.08
2015,01,18,06,03,969.08
2015,01,18,06,04,969.08
2015,01,18,06,05,969.08
2015,01,18,06,06,969.08
2015,01,18,06,07,969.08
2015,01,18,06,08,969.08
2015,01,18,06,09,969.08
2015,01,18,06,10,969.08
2015,01,18,06,11,969.08
2015,01,18,06,12,969.08
2015,01,18,06,13,969.08
2015,01,18,06,14,969.08
2015,01,18,06,15,969.08
2015,01,18,06,16,969.08
2015,01,18,06,17,969.25
2015,01,18,06,18,969.25
2015,01,18,06,19,969.25
2015,01,18,06,20,969.25
2015,01,18,06,21,969.25
2015,01,18,06,22,969.25
2015,01,18,06,23,969.25
2015,01,18,06,24,969.25
2015,01,18,06,25,969.25
2015,01,18,06,26,969.25
2015,01,18,06,27,969.25
2015,01,18,06,28,969.25
2015,01,18,06,29,969.25
2015,01,18,06,30,969.25
2015,01,18,06,31,969.25
2015,01,18,06,32,969.62
2015,01,18,06,33,969.62
2015,01,18,06,34,969.62
2015,01,18,06,35,969.62
2015,01,18,06,36,969.62
2015,01,18,06,37,969.62
2015,01,18,06,38,969.62
2015,01,18,06,39,969.62
2015,01,18,06,40,969.62
2015,01,18,06,41,969.62
2015,01,18,06,42,969.62
2015,01,18,06,43,969.62
2015,01,18,06,44,969.62
2015,01,18,06,45,969.62
2015,01,18,06,46,969.62
2015,01,18,06,47,970.23
2015,01,18,06,48,970.23
2015,01,18,06,49,970.23
2015,01,18,06,50,970.23
2015,01,18,06,51,970.23
2015,01,18,06,52,970.23
2015,01,18,06,53,970.23
2015,01,18,06,54,970.23
2015,01,18,06,55,970.23
2015,01,18,06,56,970.23
2015,01,18,06,57,970.23
2015,01,18,06,58,970.23
2015,01,18,06,59,970.23
2015,01,18,07,00,970.23
2015,01,18,07,01,970.23
2015,01,18,07,02,971.01
2015,01,18,07,03,971.01
2015,01,18,07,04,971.01
2015,01,18,07,05,971.01
2015,01,18,07,06,971.01
2015,01,18,07,07,971.01
2015,01,18,07,08,971.01
2015,01,18,07,09,971.01
2015,01,18,07,10,971.01
2015,01,18,07,11,971.01
2015,01,18,07,12,971.01
2015,01,18,07,13,971.01
2015,01,18,07,14,971.01
2015,01,18,07,15,971.01
2015,01,18,07,16,971.01
2015,01,18,07,17,971.62
2015,01,18,07,18,971.62
2015,01,18,07,19,971.62
2015,01,18,07,20,971.62
2015,01,18,07,21,971.62
2015,01,18,07,22,971.62
2015,01,18,07,23,971.62
2015,01,18,07,24,971.62
2015,01,18,07,25,971.62
2015,01,18,07,26,971.62
2015,01,18,07,27,971.62
2015,01,18,07,28,971.62
2015,01,18,07,29,971.62
2015,01,18,07,30,971.62
2015,01,18,07,31,971.62
2015,01,18,07,32,972.23
2015,01,18,07,33,972.23
2015,01,18,07,34,972.23
2015,01,18,07,35,972.23
2015,01,18,07,36,972.23
2015,01,18,07,37,972.23
2015,01,18,07,38,972.23
2015,01,18,07,39,972.23
2015,01,18,07,40,972.23
2015,01,18,07,41,972.23
2015,01,18,07,42,972.23
2015,01,18,07,43,972.23
2015,01,18,07,44,972.23
2015,01,18,07,45,972.23
2015,01,18,07,46,972.23
2015,01,18,07,47,972.77
2015,01,18,07,48,972.77
2015,01,18,07,49,972.77
2015,01,18,07,50,972.77
2015,01,18,07,51,972.77
2015,01,18,07,52,972.77
2015,01,18,07,53,972.77
2015,01,18,07,54,972.77
2015,01,18,07,55,972.77
2015,01,18,07,56,972.77
2015,01,18,07,57,972.77
2015,01,18,07,58,972.77
2015,01,18,07,59,972.77
2015,01,18,08,00,972.77
2015,01,18,08,01,972.77
2015,01,18,08,02,973.65
2015,01,18,08,03,973.65
2015,01,18,08,04,973.65
2015,01,18,08,05,973.65
2015,01,18,08,06,973.65
2015,01,18,08,07,973.65
2015,01,18,08,08,973.65
2015,01,18,08,09,973.65
2015,01,18,08,10,973.65
2015,01,18,08,11,973.65
2015,01,18,08,12,973.65
2015,01,18,08,13,973.65
2015,01,18,08,14,973.65
2015,01,18,08,15,973.65
2015,01,18,08,16,973.65
2015,01,18,08,17,974.33
2015,01,18,08,18,974.33
2015,01,18,08,19,974.33
2015,01,18,08,20,974.33
2015,01,18,08,21,974.33
2015,01,18,08,22,974.33
2015,01,18,08,23,974.33
2015,01,18,08,24,974.33
2015,01,18,08,25,974.33
2015,01,18,08,26,974.33
2015,01,18,08,27,974.33
2015,01,18,08,28,974.33
2015,01,18,08,29,974.33
2015,01,18,08,30,974.33
2015,01,18,08,31,974.33
2015,01,18,08,32,975.38
2015,01,18,08,33,975.38
2015,01,18,08,34,975.38
2015,01,18,08,35,975.38
2015,01,18,08,36,975.38
2015,01,18,08,37,975.38
2015,01,18,08,38,975.38
2015,01,18,08,39,975.38
2015,01,18,08,40,975.38
2015,01,18,08,41,975.38
2015,01,18,08,42,975.38
2015,01,18,08,43,975.38
2015,01,18,08,44,975.38
2015,01,18,08,45,975.38
2015,01,18,08,46,975.38
2015,01,18,08,47,975.96
2015,01,18,08,48,975.96
2015,01,18,08,49,975.96
2015,01,18,08,50,975.96
2015,01,18,08,51,975.96
2015,01,18,08,52,975.96
2015,01,18,08,53,975.96
2015,01,18,08,54,975.96
2015,01,18,08,55,975.96
2015,01,18,08,56,975.96
2015,01,18,08,57,975.96
2015,01,18,08,58,975.96
2015,01,18,08,59,975.96
2015,01,18,09,00,975.96
2015,01,18,09,01,975.96
2015,01,18,09,02,976.90
2015,01,18,09,03,976.90
2015,01,18,09,04,976.90
2015,01,18,09,05,976.90
2015,01,18,09,06,976.90
2015,01,18,09,07,976.90
2015,01,18,09,08,976.90
2015,01,18,09,09,976.90
2015,01,18,09,10,976.90
2015,01,18,09,11,976.90
2015,01,18,09,12,976.90
2015,01,18,09,13,976.90
2015,01,18,09,14,976.90
2015,01,18,09,15,976.90
2015,01,18,09,16,976.90
2015,01,18,09,17,976.94
2015,01,18,09,18,976.94
2015,01,18,09,19,976.94
2015,01,18,09,20,976.94
2015,01,18,09,21,976.94
2015,01,18,09,22,976.94
2015,01,18,09,23,976.94
2015,01,18,09,24,976.94
2015,01,18,09,25,976.94
2015,01,18,09,26,976.94
2015,01,18,09,27,976.94
2015,01,18,09,28,976.94
2015,01,18,09,29,976.94
2015,01,18,09,30,976.94
2015,01,18,09,31,976.94
2015,01,18,09,32,977.45
2015,01,18,09,33,977.45
2015,01,18,09,34,977.45
2015,01,18,09,35,977.45
2015,01,18,09,36,977.45
2015,01,18,09,37,977.45
2015,01,18,09,38,977.45
2015,01,18,09,39,977.45
2015,01,18,09,40,977.45
2015,01,18,09,41,977.45
2015,01,18,09,42,977.45
2015,01,18,09,43,977.45
2015,01,18,09,44,977.45
2015,01,18,09,45,977.45
2015,01,18,09,46,977.45
2015,01,18,09,47,977.99
2015,01,18,09,48,977.99
2015,01,18,09,49,977.99
2015,01,18,09,50,977.99
2015,01,18,09,51,977.99
2015,01,18,09,52,977.99
2015,01,18,09,53,977.99
2015,01,18,09,54,977.99
2015,01,18,09,55,977.99
2015,01,18,09,56,977.99
2015,01,18,09,57,977.99
2015,01,18,09,58,977.99
2015,01,18,09,59,977.99
2015,01,18,10,00,977.99
2015,01,18,10,01,977.99
2015,01,18,10,02,978.06
2015,01,18,10,03,978.06
2015,01,18,10,04,978.06
2015,01,18,10,05,978.06
2015,01,18,10,06,978.06
2015,01,18,10,07,978.06
2015,01,18,10,08,978.06
2015,01,18,10,09,978.06
2015,01,18,10,10,978.06
2015,01,18,10,11,978.06
2015,01,18,10,12,978.06
2015,01,18,10,13,978.06
2015,01,18,10,14,978.06
2015,01,18,10,15,978.06
2015,01,18,10,16,978.06
2015,01,18,10,17,978.53
2015,01,18,10,18,978.53
2015,01,18,10,19,978.53
2015,01,18,10,20,978.53
2015,01,18,10,21,978.53
2015,01,18,10,22,978.53
2015,01,18,10,23,978.53
2015,01,18,10,24,978.53
2015,01,18,10,25,978.53
2015,01,18,10,26,978.53
2015,01,18,10,27,978.53
2015,01,18,10,28,978.53
2015,01,18,10,29,978.53
2015,01,18,10,30,978.53
2015,01,18,10,31,978.53
2015,01,18,10,32,979.07
2015,01,18,10,33,979.07
2015,01,18,10,34,979.07
2015,01,18,10,35,979.07
2015,01,18,10,36,979.07
2015,01,18,10,37,979.07
2015,01,18,10,38,979.07
2015,01,18,10,39,979.07
2015,01,18,10,40,979.07
2015,01,18,10,41,979.07
2015,01,18,10,42,979.07
2015,01,18,10,43,979.07
2015,01,18,10,44,979.07
2015,01,18,10,45,979.07
2015,01,18,10,46,979.07
2015,01,18,10,47,979.55
2015,01,18,10,48,979.55
2015,01,18,10,49,979.55
2015,01,18,10,50,979.55
2015,01,18,10,51,979.55
2015,01,18,10,52,979.55
2015,01,18,10,53,979.55
2015,01,18,10,54,979.55
2015,01,18,10,55,979.55
2015,01,18,10,56,979.55
2015,01,18,10,57,979.55
2015,01,18,10,58,979.55
2015,01,18,10,59,979.55
2015,01,18,11,00,979.55
2015,01,18,11,01,979.55
2015,01,18,11,02,979.58
2015,01,18,11,03,979.58
2015,01,18,11,04,979.58
2015,01,18,11,05,979.58
2015,01,18,11,06,979.58
2015,01,18,11,07,979.58
2015,01,18,11,08,979.58
2015,01,18,11,09,979.58
2015,01,18,11,10,979.58
2015,01,18,11,11,979.58
2015,01,18,11,12,979.58
2015,01,18,11,13,979.58
2015,01,18,11,14,979.58
2015,01,18,11,15,979.58
2015,01,18,11,16,979.58
2015,01,18,11,17,979.61
2015,01,18,11,18,979.61
2015,01,18,11,19,979.61
2015,01,18,11,20,979.61
2015,01,18,11,21,979.61
2015,01,18,11,22,979.61
2015,01,18,11,23,979.61
2015,01,18,11,24,979.61
2015,01,18,11,25,979.61
2015,01,18,11,26,979.61
2015,01,18,11,27,979.61
2015,01,18,11,28,979.61
2015,01,18,11,29,979.61
2015,01,18,11,30,979.61
2015,01,18,11,31,979.61
2015,01,18,11,32,981.44
2015,01,18,11,33,981.44
2015,01,18,11,34,981.44
2015,01,18,11,35,981.44
2015,01,18,11,36,981.44
2015,01,18,11,37,981.44
2015,01,18,11,38,981.44
2015,01,18,11,39,981.44
2015,01,18,11,40,981.44
2015,01,18,11,41,981.44
2015,01,18,11,42,981.44
2015,01,18,11,43,981.44
2015,01,18,11,44,981.44
2015,01,18,11,45,981.44
2015,01,18,11,46,981.44
2015,01,18,11,47,981.61
2015,01,18,11,48,981.61
2015,01,18,11,49,981.61
2015,01,18,11,50,981.61
2015,01,18,11,51,981.61
2015,01,18,11,52,981.61
2015,01,18,11,53,981.61
2015,01,18,11,54,981.61
2015,01,18,11,55,981.61
2015,01,18,11,56,981.61
2015,01,18,11,57,981.61
2015,01,18,11,58,981.61
2015,01,18,11,59,981.61
2015,01,18,12,00,981.61
2015,01,18,12,01,981.61
2015,01,18,12,02,981.68
2015,01,18,12,03,981.68
2015,01,18,12,04,981.68
2015,01,18,12,05,981.68
2015,01,18,12,06,981.68
2015,01,18,12,07,981.68
2015,01,18,12,08,981.68
2015,01,18,12,09,981.68
2015,01,18,12,10,981.68
2015,01,18,12,11,981.68
2015,01,18,12,12,981.68
2015,01,18,12,13,981.68
2015,01,18,12,14,981.68
2015,01,18,12,15,981.68
2015,01,18,12,16,981.68
2015,01,18,12,17,982.19
2015,01,18,12,18,982.19
2015,01,18,12,19,982.19
2015,01,18,12,20,982.19
2015,01,18,12,21,982.19
2015,01,18,12,22,982.19
2015,01,18,12,23,982.19
2015,01,18,12,24,982.19
2015,01,18,12,25,982.19
2015,01,18,12,26,982.19
2015,01,18,12,27,982.19
2015,01,18,12,28,982.19
2015,01,18,12,29,982.19
2015,01,18,12,30,982.19
2015,01,18,12,31,982.19
2015,01,18,12,32,982.73
2015,01,18,12,33,982.73
2015,01,18,12,34,982.73
2015,01,18,12,35,982.73
2015,01,18,12,36,982.73
2015,01,18,12,37,982.73
2015,01,18,12,38,982.73
2015,01,18,12,39,982.73
2015,01,18,12,40,982.73
2015,01,18,12,41,982.73
2015,01,18,12,42,982.73
2015,01,18,12,43,982.73
2015,01,18,12,44,982.73
2015,01,18,12,45,982.73
2015,01,18,12,46,982.73
2015,01,18,12,47,982.83
2015,01,18,12,48,982.83
2015,01,18,12,49,982.83
2015,01,18,12,50,982.83
2015,01,18,12,51,982.83
2015,01,18,12,52,982.83
2015,01,18,12,53,982.83
2015,01,18,12,54,982.83
2015,01,18,12,55,982.83
2015,01,18,12,56,982.83
2015,01,18,12,57,982.83
2015,01,18,12,58,982.83
2015,01,18,12,59,982.83
2015,01,18,13,00,982.83
2015,01,18,13,01,982.83
2015,01,18,13,02,983.34
2015,01,18,13,03,983.34
2015,01,18,13,04,983.34
2015,01,18,13,05,983.34
2015,01,18,13,06,983.34
2015,01,18,13,07,983.34
2015,01,18,13,08,983.34
2015,01,18,13,09,983.34
2015,01,18,13,10,983.34
2015,01,18,13,11,983.34
2015,01,18,13,12,983.34
2015,01,18,13,13,983.34
2015,01,18,13,14,983.34
2015,01,18,13,15,983.34
2015,01,18,13,16,983.34
2015,01,18,13,17,983.61
2015,01,18,13,18,983.61
2015,01,18,13,19,983.61
2015,01,18,13,20,983.61
2015,01,18,13,21,983.61
2015,01,18,13,22,983.61
2015,01,18,13,23,983.61
2015,01,18,13,24,983.61
2015,01,18,13,25,983.61
2015,01,18,13,26,983.61
2015,01,18,13,27,983.61
2015,01,18,13,28,983.61
2015,01,18,13,29,983.61
2015,01,18,13,30,983.61
2015,01,18,13,31,983.61
2015,01,18,13,32,983.71
2015,01,18,13,33,983.71
2015,01,18,13,34,983.71
2015,01,18,13,35,983.71
2015,01,18,13,36,983.71
2015,01,18,13,37,983.71
2015,01,18,13,38,983.71
2015,01,18,13,39,983.71
2015,01,18,13,40,983.71
2015,01,18,13,41,983.71
2015,01,18,13,42,983.71
2015,01,18,13,43,983.71
2015,01,18,13,44,983.71
2015,01,18,13,45,983.71
2015,01,18,13,46,983.71
2015,01,18,13,47,983.81
2015,01,18,13,48,983.81
2015,01,18,13,49,983.81
2015,01,18,13,50,983.81
2015,01,18,13,51,983.81
2015,01,18,13,52,983.81
2015,01,18,13,53,983.81
2015,01,18,13,54,983.81
2015,01,18,13,55,983.81
2015,01,18,13,56,983.81
2015,01,18,13,57,983.81
2015,01,18,13,58,983.81
2015,01,18,13,59,983.81
2015,01,18,14,00,983.81
2015,01,18,14,01,983.81
2015,01,18,14,02,984.25
2015,01,18,14,03,984.25
2015,01,18,14,04,984.25
2015,01,18,14,05,984.25
2015,01,18,14,06,984.25
2015,01,18,14,07,984.25
2015,01,18,14,08,984.25
2015,01,18,14,09,984.25
2015,01,18,14,10,984.25
2015,01,18,14,11,984.25
2015,01,18,14,12,984.25
2015,01,18,14,13,984.25
2015,01,18,14,14,984.25
2015,01,18,14,15,984.25
2015,01,18,14,16,984.25
2015,01,18,14,17,984.42
2015,01,18,14,18,984.42
2015,01,18,14,19,984.42
2015,01,18,14,20,984.42
2015,01,18,14,21,984.42
2015,01,18,14,22,984.42
2015,01,18,14,23,984.42
2015,01,18,14,24,984.42
2015,01,18,14,25,984.42
2015,01,18,14,26,984.42
2015,01,18,14,27,984.42
2015,01,18,14,28,984.42
2015,01,18,14,29,984.42
2015,01,18,14,30,984.42
2015,01,18,14,31,984.42
2015,01,18,14,32,984.66
2015,01,18,14,33,984.66
2015,01,18,14,34,984.66
2015,01,18,14,35,984.66
2015,01,18,14,36,984.66
2015,01,18,14,37,984.66
2015,01,18,14,38,984.66
2015,01,18,14,39,984.66
2015,01,18,14,40,984.66
2015,01,18,14,41,984.66
2015,01,18,14,42,984.66
2015,01,18,14,43,984.66
2015,01,18,14,44,984.66
2015,01,18,14,45,984.66
2015,01,18,14,46,984.66
2015,01,18,14,47,984.93
2015,01,18,14,48,984.93
2015,01,18,14,49,984.93
2015,01,18,14,50,984.93
2015,01,18,14,51,984.93
2015,01,18,14,52,984.93
2015,01,18,14,53,984.93
2015,01,18,14,54,984.93
2015,01,18,14,55,984.93
2015,01,18,14,56,984.93
2015,01,18,14,57,984.93
2015,01,18,14,58,984.93
2015,01,18,14,59,984.93
2015,01,18,15,00,984.93
2015,01,18,15,01,984.93
2015,01,18,15,02,985.30
2015,01,18,15,03,985.30
2015,01,18,15,04,985.30
2015,01,18,15,05,985.30
2015,01,18,15,06,985.30
2015,01,18,15,07,985.30
2015,01,18,15,08,985.30
2015,01,18,15,09,985.30
2015,01,18,15,10,985.30
2015,01,18,15,11,985.30
2015,01,18,15,12,985.30
2015,01,18,15,13,985.30
2015,01,18,15,14,985.30
2015,01,18,15,15,985.30
2015,01,18,15,16,985.30
2015,01,18,15,17,985.51
2015,01,18,15,18,985.51
2015,01,18,15,19,985.51
2015,01,18,15,20,985.51
2015,01,18,15,21,985.51
2015,01,18,15,22,985.51
2015,01,18,15,23,985.51
2015,01,18,15,24,985.51
2015,01,18,15,25,985.51
2015,01,18,15,26,985.51
2015,01,18,15,27,985.51
2015,01,18,15,28,985.51
2015,01,18,15,29,985.51
2015,01,18,15,30,985.51
2015,01,18,15,31,985.51
2015,01,18,15,32,985.34
2015,01,18,15,33,985.34
2015,01,18,15,34,985.34
2015,01,18,15,35,985.34
2015,01,18,15,36,985.34
2015,01,18,15,37,985.34
2015,01,18,15,38,985.34
2015,01,18,15,39,985.34
2015,01,18,15,40,985.34
2015,01,18,15,41,985.34
2015,01,18,15,42,985.34
2015,01,18,15,43,985.34
2015,01,18,15,44,985.34
2015,01,18,15,45,985.34
2015,01,18,15,46,985.34
2015,01,18,15,47,985.71
2015,01,18,15,48,985.71
2015,01,18,15,49,985.71
2015,01,18,15,50,985.71
2015,01,18,15,51,985.71
2015,01,18,15,52,985.71
2015,01,18,15,53,985.71
2015,01,18,15,54,985.71
2015,01,18,15,55,985.71
2015,01,18,15,56,985.71
2015,01,18,15,57,985.71
2015,01,18,15,58,985.71
2015,01,18,15,59,985.71
2015,01,18,16,00,985.71
2015,01,18,16,01,985.71
2015,01,18,16,02,985.95
2015,01,18,16,03,985.95
2015,01,18,16,04,985.95
2015,01,18,16,05,985.95
2015,01,18,16,06,985.95
2015,01,18,16,07,985.95
2015,01,18,16,08,985.95
2015,01,18,16,09,985.95
2015,01,18,16,10,985.95
2015,01,18,16,11,985.95
2015,01,18,16,12,985.95
2015,01,18,16,13,985.95
2015,01,18,16,14,985.95
2015,01,18,16,15,985.95
2015,01,18,16,16,985.95
2015,01,18,16,17,986.35
2015,01,18,16,18,986.35
2015,01,18,16,19,986.35
2015,01,18,16,20,986.35
2015,01,18,16,21,986.35
2015,01,18,16,22,986.35
2015,01,18,16,23,986.35
2015,01,18,16,24,986.35
2015,01,18,16,25,986.35
2015,01,18,16,26,986.35
2015,01,18,16,27,986.35
2015,01,18,16,28,986.35
2015,01,18,16,29,986.35
2015,01,18,16,30,986.35
2015,01,18,16,31,986.35
2015,01,18,16,32,986.83
2015,01,18,16,33,986.83
2015,01,18,16,34,986.83
2015,01,18,16,35,986.83
2015,01,18,16,36,986.83